カタログに戻る

STARLINK-2472

運用中通信VLEO
NORAD 48130·PAYLOAD·🇺🇸 United States

打ち上げ Apr 7, 2021 から Cape Canaveral Space Force Station

Loading…

次のパス (今後24時間)

TLE

最新Source: CelesTrak SupGP

元期: Sep 15, 2026, 01:13 UTC

1 48130C 21027AQ  26258.05118056 -.00001953  00000+0 -62775-4 0  2585
2 48130  53.1608   6.9388 0001064  93.8119 276.0575 15.31713620    19

AllMySatでSTARLINK-2472をリアルタイム追跡

Download on the App Store